Back to catalog

STARLINK-5372

AliveCommunicationsVLEO
NORAD 54838·PAYLOAD·🇺🇸 United States

Launched Dec 28, 2022 from Cape Canaveral Space Force Station

Loading…

Next Passes (next 24 hours)

TLE

FreshSource: CelesTrak SupGP

Epoch: Sep 14, 2026, 14:06 UTC

1 54838C 22177U   26257.58798611  .00027593  00000+0  99983-3 0  2577
2 54838  43.0021 146.0627 0001184 246.8786 359.2584 15.27552170    13

Track STARLINK-5372 in real time with AllMySat

Download on the App Store